When you browse on this site, cookies collect data to enhance your experience and personalize the content and advertising you see.
Visit our Privacy Policy to learn more. By continuing to use the site, you agree to this use of cookies and data.
  • In Portugal
  • List of Countries
  • For 7 days
  • Water Temperature
  • Weather Map
  • Weather Widgets
  • user-avatar
    Login

    Hourly Weather Aguada de Cima

    Today, 19 September, Thursday

    Time Temperature Precipitation Wind Pressure Humidity
    00:00 +16°C° 0 mm 0 mps 754 mmHg 96%
    01:00 +16°C° 0 mm 0 mps 754 mmHg 96%
    02:00 +16°C° 0 mm 0 mps 754 mmHg 95%
    03:00 +16°C° 0 mm 0 mps 754 mmHg 95%
    04:00 +16°C° 0 mm 0 mps 754 mmHg 95%
    05:00 +16°C° 0 mm 0 mps 754 mmHg 95%
    06:00 +17°C° 0 mm 0 mps 754 mmHg 90%
    07:00 +18°C° 0 mm 0 mps 754 mmHg 86%
    08:00 +21°C° 0 mm 1 mps 755 mmHg 81%
    09:00 +23°C° 0 mm 1 mps 754 mmHg 74%
    10:00 +24°C° 0 mm 1 mps 754 mmHg 68%
    11:00 +26°C° 0 mm 2 mps 754 mmHg 61%
    12:00 +26°C° 0 mm 2 mps 754 mmHg 59%
    13:00 +27°C° 0 mm 3 mps 753 mmHg 57%
    14:00 +27°C° 0 mm 3 mps 753 mmHg 55%
    15:00 +25°C° 0 mm 3 mps 753 mmHg 63%
    16:00 +23°C° 0 mm 2 mps 753 mmHg 71%
    17:00 +20°C° 0 mm 2 mps 753 mmHg 79%
    18:00 +19°C° 0 mm 2 mps 753 mmHg 85%
    19:00 +19°C° 0 mm 1 mps 753 mmHg 91%
    20:00 +18°C° 0 mm 1 mps 754 mmHg 96%
    21:00 +16°C° 0 mm 1 mps 753 mmHg 96%
    22:00 +15°C° 0 mm 0 mps 753 mmHg 96%
    23:00 +15°C° 0 mm 0 mps 753 mmHg 96%

    Tomorrow, 20 September, Friday

    Time Temperature Precipitation Wind Pressure Humidity
    00:00 +15°C° 0 mm 0 mps 753 mmHg 96%
    01:00 +15°C° 0 mm 0 mps 752 mmHg 96%
    02:00 +14°C° 0 mm 0 mps 752 mmHg 96%
    03:00 +14°C° 0 mm 0 mps 752 mmHg 97%
    04:00 +14°C° 0 mm 0 mps 752 mmHg 97%
    05:00 +14°C° 0 mm 0 mps 752 mmHg 97%
    06:00 +16°C° 0 mm 0 mps 752 mmHg 89%
    07:00 +18°C° 0 mm 0 mps 752 mmHg 81%
    08:00 +20°C° 0 mm 0 mps 752 mmHg 73%
    09:00 +24°C° 0 mm 1 mps 752 mmHg 63%
    10:00 +26°C° 0 mm 2 mps 752 mmHg 53%
    11:00 +28°C° 0 mm 2 mps 751 mmHg 43%
    12:00 +28°C° 0 mm 3 mps 751 mmHg 45%
    13:00 +28°C° 0 mm 3 mps 751 mmHg 46%
    14:00 +27°C° 0 mm 4 mps 750 mmHg 48%
    15:00 +26°C° 0 mm 3 mps 750 mmHg 54%
    16:00 +24°C° 0 mm 2 mps 750 mmHg 60%
    17:00 +23°C° 0 mm 2 mps 749 mmHg 66%
    18:00 +21°C° 0 mm 1 mps 750 mmHg 73%
    19:00 +20°C° 0 mm 1 mps 750 mmHg 81%
    20:00 +18°C° 0 mm 1 mps 750 mmHg 88%
    21:00 +17°C° 0 mm 2 mps 750 mmHg 88%
    22:00 +17°C° 0 mm 2 mps 749 mmHg 88%
    23:00 +17°C° 0 mm 2 mps 749 mmHg 88%

    Day after tomorrow, 21 September, Saturday

    Time Temperature Precipitation Wind Pressure Humidity
    00:00 +17°C° 0 mm 2 mps 749 mmHg 85%
    01:00 +17°C° 0 mm 2 mps 748 mmHg 83%
    02:00 +18°C° 0 mm 2 mps 748 mmHg 81%
    03:00 +18°C° 0.3 mm 3 mps 748 mmHg 83%
    04:00 +19°C° 0.3 mm 3 mps 748 mmHg 85%
    05:00 +19°C° 0.3 mm 4 mps 748 mmHg 86%
    06:00 +19°C° 0.8 mm 3 mps 748 mmHg 88%
    07:00 +19°C° 0.8 mm 3 mps 748 mmHg 90%
    08:00 +19°C° 0.8 mm 3 mps 748 mmHg 91%
    09:00 +19°C° 1.6 mm 3 mps 748 mmHg 92%
    10:00 +19°C° 1.6 mm 4 mps 748 mmHg 92%
    11:00 +19°C° 1.6 mm 4 mps 748 mmHg 93%
    12:00 +19°C° 0.7 mm 3 mps 749 mmHg 92%
    13:00 +19°C° 0.7 mm 3 mps 749 mmHg 90%
    14:00 +19°C° 0.7 mm 3 mps 749 mmHg 88%
    15:00 +19°C° 0.1 mm 2 mps 749 mmHg 87%
    16:00 +18°C° 0.1 mm 2 mps 749 mmHg 86%
    17:00 +18°C° 0.1 mm 2 mps 749 mmHg 85%
    18:00 +17°C° 0.1 mm 2 mps 750 mmHg 88%
    19:00 +16°C° 0.1 mm 1 mps 751 mmHg 92%
    20:00 +15°C° 0.1 mm 1 mps 751 mmHg 95%
    21:00 +15°C° 0.1 mm 1 mps 751 mmHg 95%
    22:00 +15°C° 0.1 mm 1 mps 752 mmHg 95%
    23:00 +15°C° 0.1 mm 1 mps 752 mmHg 95%

    22 September, Sunday

    Time Temperature Precipitation Wind Pressure Humidity
    00:00 +15°C° 0 mm 1 mps 752 mmHg 94%
    01:00 +14°C° 0 mm 1 mps 752 mmHg 94%
    02:00 +13°C° 0 mm 0 mps 753 mmHg 94%
    03:00 +13°C° 0 mm 0 mps 753 mmHg 93%
    04:00 +12°C° 0 mm 0 mps 753 mmHg 93%
    05:00 +12°C° 0 mm 0 mps 753 mmHg 92%
    06:00 +14°C° 0 mm 0 mps 754 mmHg 85%
    07:00 +15°C° 0 mm 0 mps 754 mmHg 78%
    08:00 +17°C° 0 mm 0 mps 755 mmHg 71%
    09:00 +20°C° 0 mm 1 mps 755 mmHg 66%
    10:00 +20°C° 0 mm 2 mps 755 mmHg 61%
    11:00 +21°C° 0 mm 2 mps 756 mmHg 55%
    12:00 +22°C° 0 mm 3 mps 755 mmHg 55%
    13:00 +22°C° 0 mm 3 mps 755 mmHg 55%
    14:00 +22°C° 0 mm 3 mps 755 mmHg 55%
    15:00 +21°C° 0 mm 3 mps 755 mmHg 61%
    16:00 +19°C° 0 mm 2 mps 755 mmHg 66%
    17:00 +18°C° 0 mm 2 mps 756 mmHg 72%
    18:00 +18°C° 0 mm 1 mps 756 mmHg 79%
    19:00 +16°C° 0 mm 1 mps 756 mmHg 86%
    20:00 +13°C° 0 mm 0 mps 757 mmHg 93%
    21:00 +14°C° 0 mm 1 mps 757 mmHg 92%
    22:00 +14°C° 0 mm 1 mps 757 mmHg 91%
    23:00 +14°C° 0 mm 1 mps 757 mmHg 91%

    23 September, Monday

    Time Temperature Precipitation Wind Pressure Humidity
    00:00 +14°C° 0 mm 1 mps 757 mmHg 90%
    01:00 +14°C° 0 mm 1 mps 757 mmHg 88%
    02:00 +14°C° 0 mm 1 mps 757 mmHg 87%
    03:00 +13°C° 0 mm 1 mps 757 mmHg 86%
    04:00 +13°C° 0 mm 1 mps 757 mmHg 85%
    05:00 +13°C° 0 mm 1 mps 757 mmHg 84%
    06:00 +16°C° 0 mm 1 mps 757 mmHg 73%
    07:00 +19°C° 0 mm 1 mps 757 mmHg 62%
    08:00 +19°C° 0 mm 0 mps 757 mmHg 51%
    09:00 +23°C° 0 mm 1 mps 757 mmHg 45%
    10:00 +25°C° 0 mm 1 mps 757 mmHg 39%
    11:00 +27°C° 0 mm 1 mps 757 mmHg 32%
    12:00 +27°C° 0 mm 2 mps 757 mmHg 34%
    13:00 +27°C° 0 mm 2 mps 756 mmHg 36%
    14:00 +26°C° 0 mm 3 mps 756 mmHg 37%
    15:00 +25°C° 0 mm 2 mps 756 mmHg 45%
    16:00 +23°C° 0 mm 2 mps 756 mmHg 52%
    17:00 +20°C° 0 mm 2 mps 756 mmHg 59%
    18:00 +20°C° 0 mm 1 mps 756 mmHg 65%
    19:00 +18°C° 0 mm 1 mps 757 mmHg 72%
    20:00 +16°C° 0 mm 1 mps 757 mmHg 78%
    21:00 +15°C° 0 mm 1 mps 757 mmHg 78%
    22:00 +14°C° 0 mm 0 mps 757 mmHg 78%
    23:00 +14°C° 0 mm 0 mps 756 mmHg 78%

    24 September, Tuesday

    Time Temperature Precipitation Wind Pressure Humidity
    00:00 +14°C° 0 mm 0 mps 756 mmHg 78%
    01:00 +14°C° 0 mm 0 mps 756 mmHg 78%
    02:00 +14°C° 0 mm 0 mps 756 mmHg 78%
    03:00 +13°C° 0 mm 0 mps 756 mmHg 77%
    04:00 +13°C° 0 mm 0 mps 756 mmHg 77%
    05:00 +13°C° 0 mm 0 mps 756 mmHg 77%
    06:00 +16°C° 0 mm 0 mps 756 mmHg 68%
    07:00 +18°C° 0 mm 0 mps 756 mmHg 59%
    08:00 +21°C° 0 mm 0 mps 756 mmHg 49%
    09:00 +25°C° 0 mm 1 mps 756 mmHg 44%
    10:00 +26°C° 0 mm 1 mps 756 mmHg 38%
    11:00 +28°C° 0 mm 2 mps 757 mmHg 32%
    12:00 +28°C° 0 mm 2 mps 756 mmHg 34%
    13:00 +27°C° 0 mm 3 mps 756 mmHg 36%
    14:00 +27°C° 0 mm 3 mps 755 mmHg 37%
    15:00 +25°C° 0 mm 3 mps 755 mmHg 46%
    16:00 +23°C° 0 mm 2 mps 755 mmHg 55%
    17:00 +21°C° 0 mm 2 mps 755 mmHg 64%
    18:00 +20°C° 0 mm 1 mps 755 mmHg 72%
    19:00 +18°C° 0 mm 1 mps 756 mmHg 80%
    20:00 +15°C° 0 mm 0 mps 756 mmHg 88%
    21:00 +15°C° 0 mm 0 mps 756 mmHg 89%
    22:00 +14°C° 0 mm 0 mps 755 mmHg 89%
    23:00 +14°C° 0 mm 0 mps 755 mmHg 89%
    Show more